Weather History for St. Charles, MO

Change the Weather History Date:

Tuesday, January 29, 2013

  Actual Average (KSTL) Record (KSTL)
Temperature  
Mean Temperature 60 °F 33 °F  
Max Temperature 68 °F 41 °F 73 °F (2008)
Min Temperature 51 °F 24 °F -8 °F (1966)
Degree Days  
Heating Degree Days 6 32  
Month to date heating degree days 964  
Since 1 July heating degree days 2729  
Cooling Degree Days 0 0  
Month to date cooling degree days 0  
Year to date cooling degree days 0  
Growing Degree Days 10 (Base 50)    
Moisture  
Dew Point 56 °F    
Average Humidity 90    
Maximum Humidity 100    
Minimum Humidity 76    
Precipitation  
Precipitation 1.41 in 0.07 in 1.44 in (2013)
Month to date precipitation 2.25  
Year to date precipitation 2.25  
Snow  
Snow 0.00 in 0.10 in 4.80 in (1956)
Month to date snowfall 5.2  
Since 1 July snowfall 10.3  
Snow Depth -    
Sea Level Pressure  
Sea Level Pressure 29.58 in    
Wind  
Wind Speed 12 mph (SSW)    
Max Wind Speed 26 mph    
Max Gust Speed 32 mph    
Visibility 6 miles    
Events Rain , Thunderstorm    
T = Trace of Precipitation, MM = Missing Value Source: NWS Daily Summary

Daily Weather History Graph

Daily Weather History Graph

Search for Another Location

Airport:

Trip Planner

Search our weather history database for the weather conditions in past years. The results will help you decide how hot, cold, wet, or windy it might be!

Date:

Astronomy

Jan. 29, 2013 Rise Set
Actual Time 7:10 AM CST 5:19 PM CST
Civil Twilight 6:42 AM CST 5:48 PM CST
Nautical Twilight 6:10 AM CST 6:20 PM CST
Astronomical Twilight 5:38 AM CST 6:51 PM CST
Moon 8:14 PM CST (1/29) 8:09 AM CST (1/29)
Length of Visible Light 11h 06m
Length of Day
10h 09m
Waning Gibbous, 93% of the Moon is Illuminated
Jan 29
Waning Gibbous
Feb 3
Last Quarter
Feb 10
New
Feb 17
First Quarter
Feb 25
Full

Hourly Weather History & Observations

Time (CST) Temp. Dew Point Humidity Pressure Visibility Wind Dir Wind Speed Gust Speed Precip Events Conditions
12:54 AM 62.1 °F 57.9 °F 86% 29.81 in 10.0 mi South 10.4 mph - N/A   Clear
1:54 AM 62.1 °F 57.9 °F 86% 29.78 in 10.0 mi South 10.4 mph - N/A   Partly Cloudy
2:54 AM 64.0 °F 57.9 °F 80% 29.77 in 10.0 mi South 16.1 mph - N/A   Clear
3:54 AM 64.0 °F 57.9 °F 80% 29.75 in 10.0 mi South 15.0 mph - N/A   Clear
4:54 AM 63.0 °F 57.9 °F 84% 29.75 in 10.0 mi SSW 11.5 mph - N/A   Scattered Clouds
5:54 AM 63.0 °F 57.9 °F 84% 29.74 in 10.0 mi South 12.7 mph - N/A   Partly Cloudy
6:54 AM 63.0 °F 57.9 °F 84% 29.73 in 10.0 mi South 13.8 mph - N/A   Mostly Cloudy
7:54 AM 64.0 °F 57.9 °F 80% 29.71 in 10.0 mi South 16.1 mph - N/A   Overcast
8:54 AM 64.9 °F 59.0 °F 81% 29.70 in 10.0 mi South 17.3 mph 24.2 mph N/A   Clear
9:54 AM 66.0 °F 59.0 °F 78% 29.69 in 10.0 mi South 16.1 mph - N/A   Overcast
10:02 AM 66.2 °F 59.0 °F 78% 29.70 in 10.0 mi South 16.1 mph 21.9 mph N/A   Overcast
10:54 AM 66.9 °F 59.0 °F 76% 29.67 in 10.0 mi South 19.6 mph - N/A   Overcast
11:35 AM 68.0 °F 60.8 °F 78% 29.66 in 10.0 mi South 20.7 mph 31.1 mph N/A   Mostly Cloudy
11:54 AM 66.0 °F 59.0 °F 78% 29.64 in 8.0 mi South 18.4 mph 32.2 mph N/A   Mostly Cloudy
12:54 PM 63.0 °F 60.1 °F 90% 29.59 in 3.0 mi SSE 15.0 mph - 0.00 in Rain Light Rain
1:02 PM 62.6 °F 60.8 °F 94% 29.59 in 4.0 mi SSE 13.8 mph - 0.00 in Rain Light Rain
1:54 PM 64.0 °F 60.1 °F 87% 29.51 in 7.0 mi SE 16.1 mph - 0.00 in   Overcast
2:54 PM 64.0 °F 59.0 °F 84% 29.49 in 9.0 mi South 16.1 mph - 0.00 in Rain Light Rain
3:08 PM 64.4 °F 59.0 °F 83% 29.50 in 7.0 mi South 16.1 mph - 0.00 in Rain Light Rain
3:54 PM 66.0 °F 59.0 °F 78% 29.43 in 10.0 mi South 26.5 mph 32.2 mph 0.01 in Rain Light Rain
4:16 PM 60.8 °F 55.4 °F 82% 29.49 in 2.5 mi West 20.7 mph 32.2 mph 0.10 in Rain Rain
4:19 PM 60.8 °F 55.4 °F 82% 29.48 in 1.8 mi WNW 20.7 mph 32.2 mph 0.14 in Rain Heavy Rain
4:25 PM 59.0 °F 55.4 °F 88% 29.49 in 2.0 mi NW 18.4 mph 27.6 mph 0.17 in Rain Heavy Rain
4:29 PM 57.2 °F 55.4 °F 94% 29.50 in 3.0 mi NW 18.4 mph 27.6 mph 0.19 in Rain , Thunderstorm Heavy Rain
4:54 PM 55.9 °F 54.0 °F 93% 29.51 in 2.0 mi NNW 9.2 mph - 0.38 in Rain , Thunderstorm Heavy Thunderstorms and Rain
5:08 PM 55.4 °F 53.6 °F 94% 29.51 in 4.0 mi NNW 8.1 mph - 0.05 in Rain , Thunderstorm Rain
5:16 PM 55.4 °F 53.6 °F 94% 29.52 in 4.0 mi NW 9.2 mph - 0.07 in Rain , Thunderstorm Rain
5:32 PM 55.4 °F 53.6 °F 94% 29.54 in 2.5 mi NNW 6.9 mph 16.1 mph 0.14 in Rain Heavy Rain
5:42 PM 55.4 °F 53.6 °F 94% 29.53 in 3.0 mi North 6.9 mph - 0.19 in Rain Heavy Rain
5:54 PM 55.0 °F 53.1 °F 93% 29.53 in 5.0 mi North 4.6 mph - 0.23 in Rain Rain
6:54 PM 55.0 °F 53.1 °F 93% 29.50 in 5.0 mi Calm Calm - 0.15 in Rain Light Rain
7:02 PM 55.4 °F 53.6 °F 94% 29.50 in 5.0 mi ENE 3.5 mph - 0.01 in Rain Light Rain
7:22 PM 53.6 °F 53.6 °F 100% 29.54 in 2.5 mi West 5.8 mph - 0.10 in Rain Heavy Rain
7:40 PM 53.6 °F 53.6 °F 100% 29.53 in 3.0 mi WNW 3.5 mph - 0.19 in Rain , Thunderstorm Thunderstorms and Rain
7:54 PM 54.0 °F 53.1 °F 97% 29.52 in 5.0 mi WNW 4.6 mph - 0.22 in Rain , Thunderstorm Light Thunderstorms and Rain
8:16 PM 53.6 °F 53.6 °F 100% 29.53 in 4.0 mi WSW 4.6 mph - 0.08 in Rain Rain
8:30 PM 53.6 °F 53.6 °F 100% 29.53 in 3.0 mi WSW 4.6 mph - 0.13 in Rain , Thunderstorm Rain
8:40 PM 53.6 °F 53.6 °F 100% 29.55 in 2.5 mi WSW 5.8 mph - 0.17 in Rain , Thunderstorm Rain
8:47 PM 53.6 °F 53.6 °F 100% 29.56 in 4.0 mi WSW 4.6 mph - 0.19 in Rain , Thunderstorm Rain
8:54 PM 53.1 °F 53.1 °F 100% 29.53 in 3.0 mi WSW 3.5 mph - 0.23 in Rain , Thunderstorm Rain
9:00 PM 53.6 °F 53.6 °F 100% 29.55 in 2.0 mi WSW 3.5 mph - 0.03 in Rain Heavy Rain
9:33 PM 51.8 °F 51.8 °F 100% 29.50 in 0.8 mi Calm Calm - 0.11 in Rain Light Rain
9:54 PM 52.0 °F 51.1 °F 97% 29.47 in 0.8 mi East 5.8 mph - 0.13 in Rain Light Rain
10:40 PM 51.8 °F 51.8 °F 100% 29.44 in 1.0 mi SE 10.4 mph - 0.05 in Rain Light Rain
10:54 PM 52.0 °F 52.0 °F 100% 29.44 in 2.0 mi SE 8.1 mph - 0.06 in Rain Light Rain
11:02 PM 53.6 °F 51.8 °F 94% 29.45 in 7.0 mi SE 8.1 mph - 0.01 in Rain Light Rain